TJS-2                   
1 41911U 17001A   19264.87599331 -.00000348  00000-0  00000+0 0  9997
2 41911   0.3052  95.1072 0004023 278.4561  49.7702  1.00268011 10058
CZ-3B R/B               
1 41912U 17001B   19265.13356437  .00849066 -14928-5  46769-3 0  9999
2 41912  27.0254 300.6305 2312035 107.1711 279.3286 11.10563563 59170